Terug naar catalogus

STARLINK-30945

ActiefCommunicatieVLEO
NORAD 58874·PAYLOAD·🇺🇸 United States

Gelanceerd Jan 29, 2024 vanaf Cape Canaveral Space Force Station

Loading…

Volgende Passages (komende 24 uur)

TLE

VersSource: CelesTrak SupGP

Epoch: Sep 14, 2026, 21:23 UTC

1 58874C 24019X   26257.89145833  .00028841  00000+0  10448-2 0  2579
2 58874  43.0021 260.5712 0001658 266.6395 191.6131 15.27557980    16

Volg STARLINK-30945 in realtime met AllMySat

Download on the App Store